Simultaneous Nadir Overpasses (SNOs) Predictions

Prediction of SNOs between LANDSAT-8 and METOP-A Satellite Orbit:

Table of predicted SNOs for the next 14.0 days since TLE Epoch: 11/9/2019
Index Date (LANDSAT-8) Time (LANDSAT-8) Lat,Lon (LANDSAT-8) SZA (LANDSAT-8 ) Date (METOP-A) Time (METOP-A) Lat,Lon (METOP-A) SZA (METOP-A ) Distance(km) Time Diff (sec)
1 11/10/2019 01:20:41 81.48,-153.64 101.47 11/10/2019 01:20:00 81.48,-153.70 101.44 1.01 41
2 11/10/2019 02:10:08 -81.48, 13.89 78.54 11/10/2019 02:10:40 -81.48, 13.84 78.53 0.91 32
3 11/12/2019 20:54:55 81.48, -87.32 102.21 11/12/2019 20:54:23 81.48, -87.47 102.19 2.48 32
4 11/12/2019 21:44:22 -81.47, 80.24 77.79 11/12/2019 21:45:03 -81.48, 80.10 77.78 2.44 41
5 11/15/2019 16:29:10 81.47, -21.03 102.91 11/15/2019 16:28:46 81.48, -20.85 102.93 3.23 24
6 11/15/2019 17:18:36 -81.48, 146.95 77.04 11/15/2019 17:19:25 -81.48, 147.14 77.00 3.30 49
7 11/18/2019 12:03:24 81.48, 45.62 103.62 11/18/2019 12:03:09 81.48, 45.74 103.62 1.96 15
8 11/18/2019 12:52:51 -81.48,-146.76 76.38 11/18/2019 12:53:49 -81.48,-146.64 76.34 2.07 58
9 11/21/2019 07:37:38 81.47, 111.86 104.21 11/21/2019 07:37:32 81.48, 111.91 104.23 1.50 6




NCC Satellite Simultaneous Nadir Overpasses (SNOs) Prediction Service
